TimeCST,TemperatureF,Dew PointF,Humidity,Sea Level PressureIn,VisibilityMPH,Wind Direction,Wind SpeedMPH,Gust SpeedMPH,PrecipitationIn,Events,Conditions,WindDirDegrees,DateUTC
12:14 AM,42.8,28.4,57,29.75,10.0,ESE,8.1,-,N/A,,Overcast,120,2012-12-15 06:14:00
12:34 AM,41.0,28.4,61,29.74,10.0,ESE,10.4,-,N/A,,Overcast,110,2012-12-15 06:34:00
12:54 AM,41.0,30.2,65,29.73,7.0,ESE,10.4,-,N/A,,Light Drizzle,110,2012-12-15 06:54:00
1:14 AM,41.0,30.2,65,29.70,10.0,ESE,12.7,-,N/A,,Overcast,110,2012-12-15 07:14:00
1:34 AM,41.0,30.2,65,29.70,10.0,ESE,15.0,-,N/A,,Overcast,120,2012-12-15 07:34:00
1:54 AM,42.8,30.2,61,29.70,10.0,ESE,16.1,-,N/A,,Overcast,120,2012-12-15 07:54:00
2:14 AM,42.8,30.2,61,29.70,10.0,SE,16.1,21.9,N/A,,Overcast,130,2012-12-15 08:14:00
2:34 AM,42.8,30.2,61,29.69,10.0,SE,15.0,-,N/A,,Overcast,130,2012-12-15 08:34:00
2:54 AM,41.0,30.2,65,29.68,10.0,ESE,13.8,19.6,N/A,Rain,Light Rain,120,2012-12-15 08:54:00
3:14 AM,41.0,33.8,76,29.67,10.0,ESE,15.0,-,N/A,Rain,Light Rain,120,2012-12-15 09:14:00
3:34 AM,41.0,33.8,76,29.66,7.0,ESE,13.8,-,N/A,Rain,Rain,120,2012-12-15 09:34:00
3:54 AM,41.0,33.8,76,29.65,7.0,ESE,13.8,-,N/A,,Drizzle,110,2012-12-15 09:54:00
4:14 AM,39.2,33.8,81,29.64,4.0,ESE,12.7,19.6,0.01,Rain,Light Rain,110,2012-12-15 10:14:00
4:34 AM,39.2,35.6,87,29.63,5.0,ESE,13.8,18.4,0.02,Rain,Rain,110,2012-12-15 10:34:00
4:54 AM,39.2,35.6,87,29.62,5.0,ESE,12.7,21.9,0.03,Rain,Light Rain,120,2012-12-15 10:54:00
5:14 AM,39.2,33.8,81,29.62,5.0,ESE,11.5,-,N/A,Rain,Light Rain,120,2012-12-15 11:14:00
5:34 AM,39.2,33.8,81,29.60,5.0,ESE,11.5,-,0.03,Rain,Rain,110,2012-12-15 11:34:00
5:54 AM,39.2,33.8,81,29.59,4.0,East,11.5,16.1,0.06,Rain,Light Rain,100,2012-12-15 11:54:00
6:14 AM,39.2,33.8,81,29.58,4.0,East,11.5,17.3,0.02,Rain,Light Rain,100,2012-12-15 12:14:00
6:34 AM,39.2,33.8,81,29.57,4.0,East,10.4,-,0.03,Rain,Light Rain,100,2012-12-15 12:34:00
6:54 AM,39.2,33.8,81,29.57,4.0,East,10.4,-,0.06,Rain,Light Rain,100,2012-12-15 12:54:00
7:14 AM,39.2,35.6,87,29.57,5.0,ESE,10.4,-,0.02,Rain,Light Rain,110,2012-12-15 13:14:00
7:34 AM,39.2,35.6,87,29.56,5.0,ESE,12.7,-,0.03,Rain,Light Rain,110,2012-12-15 13:34:00
7:54 AM,39.2,35.6,87,29.55,5.0,ESE,10.4,-,0.04,Rain,Light Rain,110,2012-12-15 13:54:00
8:14 AM,41.0,35.6,81,29.55,5.0,ESE,10.4,-,0.02,Rain,Light Rain,120,2012-12-15 14:14:00
8:34 AM,41.0,35.6,81,29.55,7.0,SE,8.1,-,0.04,Rain,Light Rain,130,2012-12-15 14:34:00
8:54 AM,42.8,35.6,76,29.55,7.0,SE,9.2,-,0.04,Rain,Light Rain,130,2012-12-15 14:54:00
9:14 AM,42.8,35.6,76,29.54,10.0,SE,10.4,-,0.01,Rain,Light Rain,130,2012-12-15 15:14:00
9:34 AM,42.8,35.6,76,29.53,10.0,SE,12.7,17.3,0.02,Rain,Rain,140,2012-12-15 15:34:00
9:54 AM,42.8,35.6,76,29.53,10.0,SE,10.4,16.1,0.04,Rain,Light Rain,140,2012-12-15 15:54:00
10:14 AM,42.8,35.6,76,29.53,10.0,SE,10.4,-,0.01,Rain,Rain,130,2012-12-15 16:14:00
10:34 AM,42.8,35.6,76,29.52,10.0,SE,10.4,-,0.01,,Mostly Cloudy,130,2012-12-15 16:34:00
10:54 AM,42.8,35.6,76,29.51,10.0,SE,10.4,-,0.01,,Mostly Cloudy,130,2012-12-15 16:54:00
11:14 AM,42.8,37.4,81,29.50,10.0,SE,8.1,-,N/A,,Mostly Cloudy,130,2012-12-15 17:14:00
11:34 AM,42.8,37.4,81,29.50,10.0,SE,9.2,-,N/A,,Overcast,140,2012-12-15 17:34:00
11:54 AM,42.8,37.4,81,29.49,10.0,SE,9.2,-,N/A,,Overcast,130,2012-12-15 17:54:00
12:14 PM,42.8,37.4,81,29.49,7.0,SE,5.8,-,N/A,,Overcast,130,2012-12-15 18:14:00
12:54 PM,42.8,37.4,81,29.48,2.5,ESE,5.8,-,N/A,,Haze,120,2012-12-15 18:54:00
1:14 PM,42.8,37.4,81,29.48,1.5,ESE,4.6,-,N/A,,Haze,120,2012-12-15 19:14:00
1:54 PM,42.8,37.4,81,29.47,1.0,Calm,Calm,-,N/A,,Haze,0,2012-12-15 19:54:00
2:14 PM,42.8,37.4,81,29.47,0.5,Calm,Calm,-,N/A,,Light Drizzle,0,2012-12-15 20:14:00
2:34 PM,42.8,37.4,81,29.47,0.5,Calm,Calm,-,N/A,,Drizzle,0,2012-12-15 20:34:00
2:54 PM,42.8,37.4,81,29.47,0.5,Calm,Calm,-,N/A,,Drizzle,0,2012-12-15 20:54:00
3:14 PM,42.8,37.4,81,29.47,0.8,ENE,3.5,-,N/A,,Light Drizzle,70,2012-12-15 21:14:00
3:34 PM,42.8,37.4,81,29.48,0.8,Calm,Calm,-,N/A,,Haze,0,2012-12-15 21:34:00
3:54 PM,42.8,37.4,81,29.48,0.8,Calm,Calm,-,N/A,,Haze,0,2012-12-15 21:54:00
4:14 PM,42.8,37.4,81,29.49,1.5,Calm,Calm,-,N/A,,Haze,0,2012-12-15 22:14:00
4:34 PM,42.8,37.4,81,29.49,2.0,Calm,Calm,-,N/A,,Haze,0,2012-12-15 22:34:00
4:54 PM,42.8,37.4,81,29.49,1.8,Calm,Calm,-,N/A,,Haze,0,2012-12-15 22:54:00
5:14 PM,42.8,37.4,81,29.49,1.2,Calm,Calm,-,N/A,,Haze,0,2012-12-15 23:14:00
5:34 PM,42.8,37.4,81,29.49,1.0,Calm,Calm,-,N/A,,Haze,0,2012-12-15 23:34:00
5:54 PM,42.8,37.4,81,29.49,1.0,Calm,Calm,-,N/A,,Haze,0,2012-12-15 23:54:00
6:14 PM,42.8,37.4,81,29.50,1.0,Calm,Calm,-,N/A,,Haze,0,2012-12-16 00:14:00
6:34 PM,42.8,37.4,81,29.50,0.8,Calm,Calm,-,N/A,,Light Drizzle,0,2012-12-16 00:34:00
6:54 PM,42.8,37.4,81,29.51,0.5,WSW,4.6,-,N/A,,Light Drizzle,250,2012-12-16 00:54:00
7:14 PM,42.8,37.4,81,29.51,1.0,West,5.8,-,N/A,,Haze,270,2012-12-16 01:14:00
7:34 PM,41.0,35.6,81,29.52,3.0,West,6.9,-,N/A,,Haze,270,2012-12-16 01:34:00
7:54 PM,41.0,35.6,81,29.52,2.5,West,6.9,-,N/A,,Light Drizzle,270,2012-12-16 01:54:00
8:14 PM,41.0,35.6,81,29.52,1.0,West,8.1,-,N/A,,Drizzle,270,2012-12-16 02:14:00
8:34 PM,39.2,35.6,87,29.52,3.0,West,8.1,-,N/A,Rain,Light Rain,270,2012-12-16 02:34:00
8:54 PM,39.2,35.6,87,29.52,4.0,West,10.4,-,0.01,,Drizzle,270,2012-12-16 02:54:00
9:14 PM,39.2,35.6,87,29.53,5.0,West,11.5,-,N/A,Rain,Light Rain,280,2012-12-16 03:14:00
9:34 PM,37.4,33.8,87,29.53,5.0,West,11.5,17.3,0.01,Rain,Light Rain,280,2012-12-16 03:34:00
9:54 PM,37.4,32.0,81,29.53,4.0,West,8.1,-,0.01,Rain,Light Rain,280,2012-12-16 03:54:00
10:14 PM,35.6,30.2,81,29.53,3.0,West,10.4,-,N/A,Snow,Light Snow,280,2012-12-16 04:14:00
10:34 PM,35.6,30.2,81,29.53,4.0,WNW,9.2,-,N/A,Snow,Light Snow,290,2012-12-16 04:34:00
10:54 PM,35.6,30.2,81,29.54,5.0,WNW,9.2,-,N/A,Snow,Light Snow,290,2012-12-16 04:54:00
11:14 PM,35.6,30.2,81,29.54,5.0,WNW,11.5,-,N/A,,Haze,290,2012-12-16 05:14:00
11:34 PM,35.6,30.2,81,29.54,5.0,WNW,10.4,-,N/A,Snow,Light Snow,300,2012-12-16 05:34:00
11:54 PM,35.6,30.2,81,29.55,5.0,WNW,9.2,-,N/A,Snow,Light Snow,290,2012-12-16 05:54:00